Simultaneous Nadir Overpasses (SNOs) Predictions

Prediction of SNOs between METOP-C and LANDSAT-8 Satellite Orbit:

Table of predicted SNOs for the next 14.0 days since TLE Epoch: 10/11/2025
Index Date (METOP-C) Time (METOP-C) Lat,Lon (METOP-C) SZA (METOP-C ) Date (LANDSAT-8) Time (LANDSAT-8) Lat,Lon (LANDSAT-8) SZA (LANDSAT-8 ) Distance(km) Time Diff (sec)
1 10/13/2025 14:56:26 -81.11, 175.51 88.55 10/13/2025 14:56:41 -81.11, 175.60 88.53 1.63 15
2 10/13/2025 15:47:05 81.14, -16.38 91.57 10/13/2025 15:46:06 81.14, -16.31 91.55 1.14 59
3 10/16/2025 10:30:50 -81.12,-117.83 87.46 10/16/2025 10:30:56 -81.11,-117.94 87.48 2.03 6
4 10/16/2025 11:21:28 81.15, 50.25 92.65 10/16/2025 11:20:20 81.14, 50.12 92.60 2.43 68
5 10/19/2025 05:14:34 81.10, 140.78 93.50 10/19/2025 05:15:43 81.10, 140.69 93.52 1.51 69
6 10/19/2025 06:05:13 -81.13, -51.24 86.41 10/19/2025 06:05:09 -81.12, -51.31 86.42 1.15 4
7 10/22/2025 00:48:58 81.11,-152.73 94.52 10/22/2025 00:49:57 81.10,-152.88 94.53 2.73 59
8 10/22/2025 01:39:37 -81.13, 15.28 85.38 10/22/2025 01:39:23 -81.12, 15.13 85.41 2.58 14
9 10/24/2025 20:23:22 81.11, -86.31 95.51 10/24/2025 20:24:10 81.11, -86.28 95.54 0.57 48



Historial Predications of SNOs between METOP-C and LANDSAT-8
